AAL2231 KLAS-KMIA

Flight info

Callsign AAL2231
Flight time 3h 50m
Altitude 39000
Route NIITZ4 HOCEE ACH FLUTY TXO HULZE TANBE J87 CHMPZ TBEND TBD BLVNS Y290 DOWRY FROGZ5
Aircraft B772/H-SDE2E3FGHIJ5LORVWXY/LB1D1

Departure

Time 2026-05-04 23:30
Airport Harry Reid International Airport (KLAS)

Arrival

Time 2026-05-05 03:20
Airport Miami International Airport (KMIA)
Time Latitude Longitude Altitude Speed Heading
2026-05-04 23:09 36.08039 -115.13474 2114 ft 0 kts 272°
2026-05-04 23:10 36.08040 -115.13492 2192 ft 0 kts 272°
2026-05-04 23:10 36.08038 -115.13452 2193 ft 0 kts 272°
2026-05-04 23:10 36.08039 -115.13475 2192 ft 0 kts 272°
2026-05-04 23:19 36.08039 -115.13458 2193 ft 4 kts 272°
2026-05-04 23:20 36.08038 -115.13424 2192 ft 3 kts 272°
2026-05-04 23:20 36.08037 -115.13399 2192 ft 4 kts 257°
2026-05-04 23:20 36.08044 -115.13379 2191 ft 4 kts 208°
2026-05-04 23:20 36.08062 -115.13375 2192 ft 4 kts 180°
2026-05-04 23:21 36.08081 -115.13375 2195 ft 0 kts 180°
2026-05-04 23:24 36.08079 -115.13375 2196 ft 2 kts 180°
2026-05-04 23:24 36.08059 -115.13375 2196 ft 4 kts 180°
2026-05-04 23:25 36.08031 -115.13375 2196 ft 4 kts 180°
2026-05-04 23:25 36.07968 -115.13375 2194 ft 11 kts 180°
2026-05-04 23:25 36.07916 -115.13375 2195 ft 7 kts 180°
2026-05-04 23:25 36.07867 -115.13368 2194 ft 7 kts 161°
2026-05-04 23:26 36.07836 -115.13321 2196 ft 7 kts 107°
2026-05-04 23:26 36.07829 -115.13244 2196 ft 11 kts 91°
2026-05-04 23:26 36.07829 -115.13148 2193 ft 11 kts 90°
2026-05-04 23:26 36.07828 -115.13039 2196 ft 15 kts 90°
2026-05-04 23:27 36.07828 -115.12911 2196 ft 15 kts 90°
2026-05-04 23:27 36.07828 -115.12781 2196 ft 15 kts 89°
2026-05-04 23:27 36.07829 -115.12620 2192 ft 20 kts 90°
2026-05-04 23:27 36.07829 -115.12452 2192 ft 20 kts 90°
2026-05-04 23:28 36.07825 -115.12284 2195 ft 19 kts 104°
2026-05-04 23:28 36.07759 -115.12159 2196 ft 16 kts 127°
2026-05-04 23:28 36.07663 -115.12133 2195 ft 3 kts 209°
2026-05-04 23:28 36.07649 -115.12157 2194 ft 3 kts 244°
2026-05-04 23:29 36.07644 -115.12186 2194 ft 4 kts 267°
2026-05-04 23:29 36.07643 -115.12350 2193 ft 51 kts 269°
2026-05-04 23:29 36.07642 -115.13077 2194 ft 118 kts 270°
2026-05-04 23:29 36.07662 -115.14330 2283 ft 164 kts 268°
2026-05-04 23:30 36.07712 -115.15762 2931 ft 171 kts 265°
2026-05-04 23:30 36.07755 -115.17222 3693 ft 168 kts 266°
2026-05-04 23:30 36.07773 -115.18680 4353 ft 172 kts 265°
2026-05-04 23:30 36.07682 -115.20250 4503 ft 194 kts 258°
2026-05-04 23:31 36.07445 -115.21981 4698 ft 215 kts 256°
2026-05-04 23:31 36.07155 -115.23766 5310 ft 208 kts 248°
2026-05-04 23:31 36.06378 -115.25254 5827 ft 209 kts 229°
2026-05-04 23:31 36.05484 -115.26626 6304 ft 208 kts 227°
2026-05-04 23:32 36.04195 -115.27543 6509 ft 226 kts 199°
2026-05-04 23:32 36.02616 -115.28078 6743 ft 242 kts 200°
2026-05-04 23:32 36.00993 -115.28685 7347 ft 243 kts 194°
2026-05-04 23:32 35.99299 -115.28573 8023 ft 248 kts 169°
2026-05-04 23:33 35.97667 -115.27692 8444 ft 266 kts 150°
2026-05-04 23:33 35.96230 -115.26170 9017 ft 273 kts 143°
2026-05-04 23:33 35.94824 -115.24592 9722 ft 273 kts 143°
2026-05-04 23:33 35.93406 -115.23020 10286 ft 277 kts 143°
2026-05-04 23:34 35.91912 -115.21376 10503 ft 299 kts 142°
2026-05-04 23:34 35.90538 -115.19328 10679 ft 323 kts 127°
2026-05-04 23:34 35.89385 -115.16884 11229 ft 336 kts 123°
2026-05-04 23:34 35.88221 -115.14342 11913 ft 344 kts 124°
2026-05-04 23:35 35.87081 -115.11734 12704 ft 349 kts 116°
2026-05-04 23:35 35.86623 -115.08733 13398 ft 366 kts 92°
2026-05-04 23:35 35.86781 -115.05588 14143 ft 372 kts 89°
2026-05-04 23:35 35.86982 -115.02386 14927 ft 377 kts 89°
2026-05-04 23:36 35.87188 -114.99138 15616 ft 384 kts 89°
2026-05-04 23:36 35.87390 -114.95819 16333 ft 392 kts 89°
2026-05-04 23:36 35.87587 -114.92441 17068 ft 398 kts 89°
2026-05-04 23:36 35.87781 -114.89006 17830 ft 404 kts 90°
2026-05-04 23:37 35.87970 -114.85573 18493 ft 410 kts 90°
2026-05-04 23:37 35.88162 -114.82063 18834 ft 408 kts 90°
2026-05-04 23:37 35.88330 -114.78684 19731 ft 400 kts 91°
2026-05-04 23:37 35.88405 -114.75295 20805 ft 392 kts 93°
2026-05-04 23:38 35.88429 -114.71905 21239 ft 404 kts 94°
2026-05-04 23:38 35.88434 -114.68355 21339 ft 423 kts 93°
2026-05-04 23:38 35.88439 -114.64672 21700 ft 435 kts 93°
2026-05-04 23:38 35.88449 -114.60891 22204 ft 444 kts 93°
2026-05-04 23:39 35.88467 -114.57051 22795 ft 451 kts 93°
2026-05-04 23:39 35.88493 -114.53163 23421 ft 457 kts 92°
2026-05-04 23:39 35.88523 -114.49222 23930 ft 462 kts 93°
2026-05-04 23:39 35.88554 -114.45284 24441 ft 468 kts 93°
2026-05-04 23:40 35.88584 -114.41234 24914 ft 474 kts 94°
2026-05-04 23:40 35.88612 -114.37132 25376 ft 481 kts 94°
2026-05-04 23:40 35.88639 -114.32972 25853 ft 487 kts 94°
2026-05-04 23:40 35.88664 -114.28769 26319 ft 493 kts 95°
2026-05-04 23:41 35.88688 -114.24509 26813 ft 498 kts 95°
2026-05-04 23:41 35.88711 -114.20215 27303 ft 503 kts 95°
2026-05-04 23:41 35.88732 -114.15868 27720 ft 509 kts 96°
2026-05-04 23:41 35.88751 -114.11472 28140 ft 516 kts 96°
2026-05-04 23:42 35.88769 -114.07075 28536 ft 521 kts 96°
2026-05-04 23:42 35.88787 -114.02526 28977 ft 526 kts 96°
2026-05-04 23:42 35.88804 -113.97997 29439 ft 530 kts 96°
2026-05-04 23:42 35.88819 -113.93488 29833 ft 535 kts 97°
2026-05-04 23:43 35.88831 -113.88883 30184 ft 539 kts 97°
2026-05-04 23:43 35.88843 -113.84193 30584 ft 541 kts 97°
2026-05-04 23:43 35.88855 -113.79609 31024 ft 541 kts 97°
2026-05-04 23:43 35.88864 -113.74968 31471 ft 541 kts 97°
2026-05-04 23:44 35.88870 -113.70326 31904 ft 542 kts 98°
2026-05-04 23:44 35.88874 -113.65668 32278 ft 544 kts 98°
2026-05-04 23:44 35.88876 -113.60999 32540 ft 546 kts 98°
2026-05-04 23:44 35.88893 -113.56297 32832 ft 552 kts 96°
2026-05-04 23:45 35.89133 -113.51546 33155 ft 559 kts 91°
2026-05-04 23:45 35.89741 -113.46777 33606 ft 563 kts 85°
2026-05-04 23:45 35.90492 -113.42023 33964 ft 565 kts 85°
2026-05-04 23:45 35.91270 -113.37264 34216 ft 568 kts 85°
2026-05-04 23:46 35.92052 -113.32468 34374 ft 572 kts 85°
2026-05-04 23:46 35.92821 -113.27650 34606 ft 574 kts 84°
2026-05-04 23:46 35.93581 -113.22808 34891 ft 575 kts 85°
2026-05-04 23:46 35.94329 -113.17956 35139 ft 576 kts 85°
2026-05-04 23:47 35.95071 -113.13079 35332 ft 579 kts 85°
2026-05-04 23:47 35.95808 -113.08191 35539 ft 581 kts 85°
2026-05-04 23:47 35.96297 -113.04940 35681 ft 582 kts 85°
2026-05-04 23:47 35.97037 -113.00011 35875 ft 584 kts 85°
2026-05-04 23:48 35.97777 -112.95081 36118 ft 584 kts 85°
2026-05-04 23:48 35.98517 -112.90147 36348 ft 585 kts 84°
2026-05-04 23:48 35.99257 -112.85203 36544 ft 586 kts 84°
2026-05-04 23:48 35.99997 -112.80244 36748 ft 587 kts 84°
2026-05-04 23:49 36.00736 -112.75281 36982 ft 588 kts 84°
2026-05-04 23:49 36.01473 -112.70315 37221 ft 588 kts 84°
2026-05-04 23:49 36.02208 -112.65345 37429 ft 589 kts 84°
2026-05-04 23:49 36.02943 -112.60355 37616 ft 589 kts 84°
2026-05-04 23:50 36.03676 -112.55365 37844 ft 589 kts 84°
2026-05-04 23:50 36.04407 -112.50388 38088 ft 590 kts 84°
2026-05-04 23:50 36.05137 -112.45395 38300 ft 590 kts 84°
2026-05-04 23:50 36.05864 -112.40399 38540 ft 591 kts 84°
2026-05-04 23:51 36.06589 -112.35402 38741 ft 591 kts 84°
2026-05-04 23:51 36.07313 -112.30400 38900 ft 592 kts 84°
2026-05-04 23:51 36.08750 -112.20426 38994 ft 591 kts 84°
2026-05-04 23:52 36.10184 -112.10413 38982 ft 592 kts 84°
2026-05-04 23:52 36.11617 -112.00338 38965 ft 597 kts 84°
2026-05-04 23:53 36.13057 -111.90214 38887 ft 594 kts 84°
2026-05-04 23:53 36.14460 -111.80224 38831 ft 593 kts 84°
2026-05-04 23:54 36.15864 -111.70116 38825 ft 597 kts 83°
2026-05-04 23:54 36.17119 -111.59953 38792 ft 596 kts 90°
2026-05-04 23:55 36.17195 -111.49760 38781 ft 588 kts 100°
2026-05-04 23:56 36.15397 -111.34917 38794 ft 580 kts 108°
2026-05-04 23:56 36.13958 -111.25080 38762 ft 581 kts 108°
2026-05-04 23:57 36.12567 -111.15275 38771 ft 582 kts 108°
2026-05-04 23:57 36.11195 -111.05393 38762 ft 583 kts 107°
2026-05-04 23:58 36.09818 -110.95482 38781 ft 583 kts 107°
2026-05-04 23:58 36.08428 -110.85588 38770 ft 584 kts 107°
2026-05-04 23:59 36.07026 -110.75692 38769 ft 585 kts 107°
2026-05-04 23:59 36.05622 -110.65852 38772 ft 585 kts 107°
2026-05-05 00:00 36.04199 -110.55932 38776 ft 586 kts 107°
2026-05-05 00:00 36.02769 -110.46025 38772 ft 586 kts 107°
2026-05-05 00:01 36.01328 -110.36100 38771 ft 587 kts 107°
2026-05-05 00:01 35.99876 -110.26161 38777 ft 587 kts 107°
2026-05-05 00:02 35.98417 -110.16230 38771 ft 588 kts 107°
2026-05-05 00:02 35.96948 -110.06293 38759 ft 589 kts 107°
2026-05-05 00:03 35.95470 -109.96357 38776 ft 589 kts 107°
2026-05-05 00:03 35.93990 -109.86459 38761 ft 590 kts 107°
2026-05-05 00:04 35.92494 -109.76512 38763 ft 589 kts 107°
2026-05-05 00:04 35.90992 -109.66583 38764 ft 589 kts 107°
2026-05-05 00:05 35.89480 -109.56655 38766 ft 589 kts 107°
2026-05-05 00:05 35.87958 -109.46716 38776 ft 590 kts 107°
2026-05-05 00:06 35.86424 -109.36760 38809 ft 591 kts 107°
2026-05-05 00:06 35.84882 -109.26805 38866 ft 592 kts 107°
2026-05-05 00:07 35.83331 -109.16842 38907 ft 592 kts 107°
2026-05-05 00:07 35.81770 -109.06877 38953 ft 592 kts 107°
2026-05-05 00:08 35.80200 -108.96907 38950 ft 593 kts 107°
2026-05-05 00:08 35.78620 -108.86937 38892 ft 593 kts 107°
2026-05-05 00:09 35.77042 -108.77034 38836 ft 593 kts 107°
2026-05-05 00:09 35.75447 -108.67076 38830 ft 593 kts 107°
2026-05-05 00:10 35.73838 -108.57090 38804 ft 594 kts 107°
2026-05-05 00:10 35.72223 -108.47119 38762 ft 594 kts 107°
2026-05-05 00:11 35.70608 -108.37198 38750 ft 594 kts 107°
2026-05-05 00:11 35.68972 -108.27216 38756 ft 595 kts 106°
2026-05-05 00:12 35.67328 -108.17227 38758 ft 595 kts 107°
2026-05-05 00:12 35.65679 -108.07257 38771 ft 594 kts 107°
2026-05-05 00:13 35.64023 -107.97313 38778 ft 593 kts 107°
2026-05-05 00:13 35.62369 -107.87431 38792 ft 593 kts 107°
2026-05-05 00:14 35.60700 -107.77509 38797 ft 592 kts 107°
2026-05-05 00:14 35.59024 -107.67593 38807 ft 592 kts 107°
2026-05-05 00:15 35.57336 -107.57670 38804 ft 593 kts 106°
2026-05-05 00:15 35.55656 -107.47837 38806 ft 594 kts 106°
2026-05-05 00:16 35.53943 -107.37861 38808 ft 595 kts 106°
2026-05-05 00:16 35.52225 -107.27912 38799 ft 595 kts 107°
2026-05-05 00:17 35.50501 -107.17973 38797 ft 594 kts 106°
2026-05-05 00:17 35.48786 -107.08137 38809 ft 593 kts 107°
2026-05-05 00:18 35.47046 -106.98229 38806 ft 594 kts 107°
2026-05-05 00:18 35.45300 -106.88312 38819 ft 594 kts 107°
2026-05-05 00:19 35.43543 -106.78395 38818 ft 595 kts 107°
2026-05-05 00:19 35.41777 -106.68474 38816 ft 595 kts 107°
2026-05-05 00:20 35.40001 -106.58552 38793 ft 596 kts 107°
2026-05-05 00:20 35.38223 -106.48665 38757 ft 596 kts 107°
2026-05-05 00:21 35.36432 -106.38750 38753 ft 596 kts 106°
2026-05-05 00:21 35.34632 -106.28840 38788 ft 595 kts 106°
2026-05-05 00:22 35.32826 -106.18942 38798 ft 595 kts 106°
2026-05-05 00:22 35.31012 -106.09048 38791 ft 593 kts 106°
2026-05-05 00:23 35.29198 -105.99204 38777 ft 592 kts 107°
2026-05-05 00:23 35.27390 -105.89443 38763 ft 591 kts 107°
2026-05-05 00:24 35.25564 -105.79630 38763 ft 591 kts 107°
2026-05-05 00:24 35.23731 -105.69825 38755 ft 590 kts 107°
2026-05-05 00:25 35.21891 -105.60029 38742 ft 590 kts 107°
2026-05-05 00:25 35.20048 -105.50265 38736 ft 589 kts 107°
2026-05-05 00:26 35.18199 -105.40513 38725 ft 588 kts 107°
2026-05-05 00:26 35.16356 -105.30837 38728 ft 587 kts 107°
2026-05-05 00:27 35.14497 -105.21128 38709 ft 586 kts 107°
2026-05-05 00:27 35.12635 -105.11433 38691 ft 587 kts 107°
2026-05-05 00:28 35.10670 -105.01758 38684 ft 584 kts 111°
2026-05-05 00:28 35.08148 -104.92321 38739 ft 584 kts 114°
2026-05-05 00:29 35.05528 -104.82932 38775 ft 585 kts 114°
2026-05-05 00:29 35.02941 -104.73559 38830 ft 586 kts 113°
2026-05-05 00:30 35.00364 -104.64107 38857 ft 587 kts 113°
2026-05-05 00:30 34.97781 -104.54640 38861 ft 588 kts 113°
2026-05-05 00:31 34.95183 -104.45169 38807 ft 590 kts 113°
2026-05-05 00:31 34.92568 -104.35680 38739 ft 590 kts 113°
2026-05-05 00:32 34.89943 -104.26191 38682 ft 591 kts 113°
2026-05-05 00:32 34.87309 -104.16698 38652 ft 592 kts 113°
2026-05-05 00:33 34.85111 -104.08802 38651 ft 592 kts 113°
2026-05-05 00:33 34.82459 -103.99306 38646 ft 593 kts 113°
2026-05-05 00:34 34.79368 -103.88276 38653 ft 593 kts 113°
2026-05-05 00:34 34.77128 -103.80311 38651 ft 593 kts 113°
2026-05-05 00:35 34.74472 -103.70892 38654 ft 594 kts 113°
2026-05-05 00:35 34.71780 -103.61376 38661 ft 594 kts 114°
2026-05-05 00:36 34.69079 -103.51885 38677 ft 594 kts 114°
2026-05-05 00:36 34.66367 -103.42396 38718 ft 594 kts 114°
2026-05-05 00:37 34.63647 -103.32902 38753 ft 594 kts 114°
2026-05-05 00:37 34.60940 -103.23481 38785 ft 594 kts 114°
2026-05-05 00:38 34.58210 -103.14011 38816 ft 594 kts 114°
2026-05-05 00:38 34.55474 -103.04551 38832 ft 594 kts 114°
2026-05-05 00:39 34.52729 -102.95093 38828 ft 594 kts 114°
2026-05-05 00:39 34.49981 -102.85648 38811 ft 593 kts 114°
2026-05-05 00:40 34.47175 -102.76248 38754 ft 593 kts 115°
2026-05-05 00:40 34.44296 -102.66957 38724 ft 592 kts 115°
2026-05-05 00:41 34.41391 -102.57627 38703 ft 592 kts 115°
2026-05-05 00:41 34.38495 -102.48286 38694 ft 592 kts 115°
2026-05-05 00:42 34.35601 -102.38949 38685 ft 592 kts 115°
2026-05-05 00:42 34.32699 -102.29614 38678 ft 592 kts 115°
2026-05-05 00:43 34.29813 -102.20365 38670 ft 591 kts 115°
2026-05-05 00:43 34.26899 -102.11060 38678 ft 591 kts 115°
2026-05-05 00:44 34.23982 -102.01774 38705 ft 591 kts 115°
2026-05-05 00:44 34.21053 -101.92479 38743 ft 591 kts 115°
2026-05-05 00:45 34.18120 -101.83197 38782 ft 591 kts 115°
2026-05-05 00:45 34.15183 -101.73932 38787 ft 591 kts 115°
2026-05-05 00:46 34.12232 -101.64652 38789 ft 592 kts 115°
2026-05-05 00:46 34.09291 -101.55430 38754 ft 592 kts 115°
2026-05-05 00:47 34.06324 -101.46158 38714 ft 593 kts 115°
2026-05-05 00:47 34.03347 -101.36880 38675 ft 594 kts 115°
2026-05-05 00:48 34.00359 -101.27599 38653 ft 594 kts 115°
2026-05-05 00:48 33.97355 -101.18293 38653 ft 595 kts 115°
2026-05-05 00:49 33.94361 -101.09048 38647 ft 596 kts 115°
2026-05-05 00:49 33.91342 -100.99752 38647 ft 597 kts 115°
2026-05-05 00:50 33.88310 -100.90447 38648 ft 597 kts 115°
2026-05-05 00:50 33.85267 -100.81133 38644 ft 597 kts 115°
2026-05-05 00:51 33.82215 -100.71822 38638 ft 598 kts 115°
2026-05-05 00:51 33.79156 -100.62516 38637 ft 598 kts 115°
2026-05-05 00:52 33.76109 -100.53274 38636 ft 598 kts 115°
2026-05-05 00:52 33.73036 -100.43981 38636 ft 598 kts 115°
2026-05-05 00:53 33.69961 -100.34708 38635 ft 597 kts 115°
2026-05-05 00:53 33.66875 -100.25426 38639 ft 597 kts 115°
2026-05-05 00:54 33.63858 -100.16128 38639 ft 598 kts 113°
2026-05-05 00:54 33.61072 -100.06800 38640 ft 598 kts 111°
2026-05-05 00:55 33.58300 -99.97390 38644 ft 598 kts 112°
2026-05-05 00:55 33.55481 -99.88001 38647 ft 597 kts 112°
2026-05-05 00:56 33.52629 -99.78636 38646 ft 597 kts 112°
2026-05-05 00:56 33.49768 -99.69287 38646 ft 597 kts 112°
2026-05-05 00:57 33.46902 -99.59935 38643 ft 597 kts 112°
2026-05-05 00:57 33.44035 -99.50595 38646 ft 597 kts 112°
2026-05-05 00:58 33.41159 -99.41255 38645 ft 597 kts 112°
2026-05-05 00:58 33.38294 -99.31980 38661 ft 597 kts 112°
2026-05-05 00:59 33.35400 -99.22641 38657 ft 597 kts 112°
2026-05-05 00:59 33.32507 -99.13335 38671 ft 597 kts 112°
2026-05-05 01:00 33.29605 -99.04028 38680 ft 596 kts 112°
2026-05-05 01:00 33.26724 -98.94816 38690 ft 596 kts 112°
2026-05-05 01:01 33.23817 -98.85550 38710 ft 595 kts 112°
2026-05-05 01:01 33.20900 -98.76279 38726 ft 595 kts 112°
2026-05-05 01:02 33.17980 -98.67028 38735 ft 595 kts 112°
2026-05-05 01:02 33.15055 -98.57785 38741 ft 595 kts 112°
2026-05-05 01:03 33.12123 -98.48553 38739 ft 595 kts 112°
2026-05-05 01:03 33.09187 -98.39331 38739 ft 595 kts 112°
2026-05-05 01:04 33.06243 -98.30114 38733 ft 595 kts 112°
2026-05-05 01:04 33.01815 -98.16303 38746 ft 594 kts 112°
2026-05-05 01:05 32.98856 -98.07109 38757 ft 594 kts 112°
2026-05-05 01:05 32.95910 -97.97980 38758 ft 594 kts 112°
2026-05-05 01:06 32.94425 -97.93389 38923 ft 594 kts 112°
2026-05-05 01:06 32.92941 -97.88804 38963 ft 594 kts 112°
2026-05-05 01:06 32.89966 -97.79640 39017 ft 593 kts 112°
2026-05-05 01:07 32.86983 -97.70478 39018 ft 593 kts 112°
2026-05-05 01:07 32.84000 -97.61339 38985 ft 592 kts 112°
2026-05-05 01:08 32.82507 -97.56779 38782 ft 592 kts 112°
2026-05-05 01:08 32.80996 -97.52168 38786 ft 591 kts 112°
2026-05-05 01:08 32.78023 -97.43113 38788 ft 591 kts 112°
2026-05-05 01:09 32.75025 -97.34010 38776 ft 591 kts 112°
2026-05-05 01:09 32.72022 -97.24916 38778 ft 591 kts 112°
2026-05-05 01:10 32.69013 -97.15833 38793 ft 591 kts 112°
2026-05-05 01:10 32.65993 -97.06739 38792 ft 591 kts 112°
2026-05-05 01:11 32.62970 -96.97659 38816 ft 591 kts 112°
2026-05-05 01:11 32.59723 -96.88723 38793 ft 585 kts 126°
2026-05-05 01:12 32.57223 -96.84994 38803 ft 572 kts 143°
2026-05-05 01:12 32.54218 -96.82068 38820 ft 561 kts 148°
2026-05-05 01:12 32.51300 -96.78942 38835 ft 572 kts 140°
2026-05-05 01:12 32.48640 -96.75394 38835 ft 579 kts 133°
2026-05-05 01:13 32.44102 -96.67401 38822 ft 591 kts 119°
2026-05-05 01:13 32.40452 -96.58644 38824 ft 594 kts 117°
2026-05-05 01:14 32.36888 -96.49795 38839 ft 596 kts 117°
2026-05-05 01:14 32.33252 -96.40979 38839 ft 596 kts 118°
2026-05-05 01:15 32.29553 -96.32203 38838 ft 595 kts 118°
2026-05-05 01:15 32.25847 -96.23474 38840 ft 594 kts 118°
2026-05-05 01:16 32.22146 -96.14760 38842 ft 592 kts 118°
2026-05-05 01:16 32.18479 -96.06127 38843 ft 591 kts 118°
2026-05-05 01:17 32.14797 -95.97475 38862 ft 590 kts 118°
2026-05-05 01:17 32.11107 -95.88828 38855 ft 589 kts 118°
2026-05-05 01:18 32.08041 -95.81659 38858 ft 588 kts 118°
2026-05-05 01:18 32.04343 -95.73032 38857 ft 588 kts 118°
2026-05-05 01:19 32.00641 -95.64417 38869 ft 588 kts 118°
2026-05-05 01:19 31.96942 -95.55830 38880 ft 588 kts 118°
2026-05-05 01:20 31.93255 -95.47291 38853 ft 588 kts 118°
2026-05-05 01:20 31.89538 -95.38699 38863 ft 588 kts 118°
2026-05-05 01:21 31.85814 -95.30117 38857 ft 588 kts 118°
2026-05-05 01:21 31.82084 -95.21538 38851 ft 588 kts 118°
2026-05-05 01:22 31.78356 -95.12981 38855 ft 588 kts 118°
2026-05-05 01:22 31.74618 -95.04425 38861 ft 588 kts 118°
2026-05-05 01:23 31.70884 -94.95897 38890 ft 587 kts 118°
2026-05-05 01:23 31.67164 -94.87421 38900 ft 586 kts 118°
2026-05-05 01:24 31.63421 -94.78912 38907 ft 586 kts 118°
2026-05-05 01:24 31.59675 -94.70415 38900 ft 585 kts 118°
2026-05-05 01:25 31.55928 -94.61938 38907 ft 585 kts 118°
2026-05-05 01:25 31.52178 -94.53471 38905 ft 584 kts 118°
2026-05-05 01:26 31.48428 -94.45023 38908 ft 584 kts 118°
2026-05-05 01:26 31.44673 -94.36585 38910 ft 584 kts 118°
2026-05-05 01:27 31.40936 -94.28205 38920 ft 584 kts 118°
2026-05-05 01:27 31.37163 -94.19765 38924 ft 584 kts 118°
2026-05-05 01:28 31.33394 -94.11351 38927 ft 584 kts 118°
2026-05-05 01:28 31.29613 -94.02931 38927 ft 584 kts 118°
2026-05-05 01:29 31.25853 -93.94575 38929 ft 584 kts 118°
2026-05-05 01:29 31.22063 -93.86172 38931 ft 584 kts 118°
2026-05-05 01:30 31.18269 -93.77778 38940 ft 584 kts 118°
2026-05-05 01:30 31.14471 -93.69394 38936 ft 583 kts 118°
2026-05-05 01:31 31.10687 -93.61061 38943 ft 583 kts 118°
2026-05-05 01:31 31.06883 -93.52703 38945 ft 583 kts 118°
2026-05-05 01:32 31.03077 -93.44357 38943 ft 582 kts 118°
2026-05-05 01:32 30.99267 -93.36023 38936 ft 582 kts 118°
2026-05-05 01:33 30.95456 -93.27703 38939 ft 582 kts 118°
2026-05-05 01:33 30.91638 -93.19387 38937 ft 581 kts 118°
2026-05-05 01:34 30.87821 -93.11090 38951 ft 581 kts 118°
2026-05-05 01:34 30.83997 -93.02798 38978 ft 581 kts 118°
2026-05-05 01:35 30.80171 -92.94517 38982 ft 581 kts 118°
2026-05-05 01:35 30.76341 -92.86249 38973 ft 581 kts 118°
2026-05-05 01:36 30.72526 -92.78028 38961 ft 581 kts 119°
2026-05-05 01:36 30.68684 -92.69769 38962 ft 580 kts 119°
2026-05-05 01:37 30.64839 -92.61519 38968 ft 581 kts 119°
2026-05-05 01:37 30.60987 -92.53273 38980 ft 581 kts 119°
2026-05-05 01:38 30.57131 -92.45035 38991 ft 581 kts 119°
2026-05-05 01:38 30.53265 -92.36796 38995 ft 581 kts 119°
2026-05-05 01:39 30.49419 -92.28614 38991 ft 581 kts 119°
2026-05-05 01:39 30.45544 -92.20389 38986 ft 581 kts 119°
2026-05-05 01:40 30.41664 -92.12172 38985 ft 581 kts 119°
2026-05-05 01:40 30.37777 -92.03955 38999 ft 581 kts 119°
2026-05-05 01:41 30.33878 -91.95732 38992 ft 581 kts 119°
2026-05-05 01:41 30.29979 -91.87526 38994 ft 581 kts 119°
2026-05-05 01:42 30.26080 -91.79337 38993 ft 581 kts 119°
2026-05-05 01:42 30.22200 -91.71205 39004 ft 580 kts 120°
2026-05-05 01:43 30.18288 -91.63024 39004 ft 580 kts 120°
2026-05-05 01:43 30.14384 -91.54876 39010 ft 579 kts 120°
2026-05-05 01:44 30.10472 -91.46728 39015 ft 578 kts 120°
2026-05-05 01:44 30.06593 -91.38665 39017 ft 578 kts 120°
2026-05-05 01:45 30.02686 -91.30561 39022 ft 577 kts 120°
2026-05-05 01:45 29.98778 -91.22473 39027 ft 576 kts 120°
2026-05-05 01:46 29.94873 -91.14405 39020 ft 576 kts 120°
2026-05-05 01:46 29.90963 -91.06345 39023 ft 576 kts 120°
2026-05-05 01:47 29.87049 -90.98293 39032 ft 575 kts 120°
2026-05-05 01:47 29.83127 -90.90241 39036 ft 575 kts 120°
2026-05-05 01:48 29.79230 -90.82255 39039 ft 575 kts 120°
2026-05-05 01:48 29.75298 -90.74215 39039 ft 575 kts 120°
2026-05-05 01:49 29.71371 -90.66201 39038 ft 575 kts 120°
2026-05-05 01:49 29.67430 -90.58176 39038 ft 575 kts 120°
2026-05-05 01:50 29.63486 -90.50159 39033 ft 575 kts 120°
2026-05-05 01:50 29.59567 -90.42210 39029 ft 575 kts 120°
2026-05-05 01:51 29.55618 -90.34215 39024 ft 575 kts 120°
2026-05-05 01:51 29.51660 -90.26218 39033 ft 575 kts 120°
2026-05-05 01:52 29.47703 -90.18240 39032 ft 575 kts 120°
2026-05-05 01:52 29.43737 -90.10258 39014 ft 575 kts 120°
2026-05-05 01:53 29.39767 -90.02286 39029 ft 575 kts 120°
2026-05-05 01:53 29.35821 -89.94375 39033 ft 575 kts 120°
2026-05-05 01:54 29.31845 -89.86421 39036 ft 575 kts 120°
2026-05-05 01:54 29.27868 -89.78481 39036 ft 574 kts 120°
2026-05-05 01:55 29.23887 -89.70547 39031 ft 574 kts 120°
2026-05-05 01:55 29.19896 -89.62611 39036 ft 574 kts 120°
2026-05-05 01:56 29.15904 -89.54686 39035 ft 574 kts 120°
2026-05-05 01:56 29.11931 -89.46815 39035 ft 574 kts 120°
2026-05-05 01:57 29.07936 -89.38916 39036 ft 573 kts 120°
2026-05-05 01:57 29.03941 -89.31032 39032 ft 573 kts 120°
2026-05-05 01:58 28.99937 -89.23145 39035 ft 573 kts 120°
2026-05-05 01:58 28.95934 -89.15277 39035 ft 573 kts 120°
2026-05-05 01:59 28.91918 -89.07396 39040 ft 573 kts 120°
2026-05-05 01:59 28.87909 -88.99545 39039 ft 573 kts 120°
2026-05-05 02:00 28.83892 -88.91693 39040 ft 573 kts 120°
2026-05-05 02:00 28.79896 -88.83896 39042 ft 572 kts 120°
2026-05-05 02:01 28.75868 -88.76053 39039 ft 572 kts 120°
2026-05-05 02:01 28.71843 -88.68229 39043 ft 572 kts 120°
2026-05-05 02:02 28.67813 -88.60411 39038 ft 572 kts 120°
2026-05-05 02:02 28.63778 -88.52599 39049 ft 572 kts 120°
2026-05-05 02:03 28.60419 -88.46106 39049 ft 572 kts 121°
2026-05-05 02:03 28.56376 -88.38303 39043 ft 572 kts 121°
2026-05-05 02:04 28.52323 -88.30497 39043 ft 572 kts 121°
2026-05-05 02:04 28.48273 -88.22709 39043 ft 572 kts 121°
2026-05-05 02:05 28.44217 -88.14923 39041 ft 572 kts 121°
2026-05-05 02:05 28.40166 -88.07139 39042 ft 571 kts 119°
2026-05-05 02:06 28.36794 -87.98987 39037 ft 569 kts 107°
2026-05-05 02:06 28.34366 -87.90461 39051 ft 568 kts 105°
2026-05-05 02:07 28.31999 -87.81955 39046 ft 568 kts 105°
2026-05-05 02:07 28.29562 -87.73427 39045 ft 568 kts 105°
2026-05-05 02:08 28.27090 -87.64918 39044 ft 568 kts 106°
2026-05-05 02:08 28.24606 -87.56403 39048 ft 568 kts 106°
2026-05-05 02:09 28.22125 -87.47901 39046 ft 568 kts 106°
2026-05-05 02:09 28.19655 -87.39451 39046 ft 568 kts 106°
2026-05-05 02:10 28.17165 -87.30949 39043 ft 568 kts 106°
2026-05-05 02:10 28.14668 -87.22450 39043 ft 567 kts 106°
2026-05-05 02:11 28.12183 -87.14014 39049 ft 567 kts 106°
2026-05-05 02:11 28.09682 -87.05544 39046 ft 567 kts 106°
2026-05-05 02:12 28.05916 -86.92832 39046 ft 567 kts 106°
2026-05-05 02:13 28.03400 -86.84361 39044 ft 567 kts 106°
2026-05-05 02:13 28.00880 -86.75899 39044 ft 567 kts 106°
2026-05-05 02:14 27.98404 -86.67421 39043 ft 567 kts 105°
2026-05-05 02:14 27.95962 -86.58932 39041 ft 567 kts 105°
2026-05-05 02:15 27.93528 -86.50501 39042 ft 567 kts 105°
2026-05-05 02:15 27.91061 -86.42013 39040 ft 567 kts 105°
2026-05-05 02:16 27.88586 -86.33537 39042 ft 568 kts 106°
2026-05-05 02:16 27.86106 -86.25060 39038 ft 568 kts 106°
2026-05-05 02:17 27.83621 -86.16584 39042 ft 568 kts 106°
2026-05-05 02:17 27.81133 -86.08120 39039 ft 567 kts 106°
2026-05-05 02:18 27.78656 -85.99716 39038 ft 567 kts 106°
2026-05-05 02:18 27.76158 -85.91261 39042 ft 567 kts 106°
2026-05-05 02:19 27.73658 -85.82820 39042 ft 566 kts 106°
2026-05-05 02:19 27.71155 -85.74387 39045 ft 566 kts 106°
2026-05-05 02:20 27.68651 -85.65974 39041 ft 565 kts 106°
2026-05-05 02:20 27.66143 -85.57571 39043 ft 565 kts 106°
2026-05-05 02:21 27.63648 -85.49225 39044 ft 565 kts 106°
2026-05-05 02:21 27.61133 -85.40834 39044 ft 565 kts 106°
2026-05-05 02:22 27.58776 -85.32390 39050 ft 562 kts 100°
2026-05-05 02:22 27.57308 -85.23753 39040 ft 560 kts 96°
2026-05-05 02:23 27.55877 -85.15113 39052 ft 561 kts 97°
2026-05-05 02:23 27.54357 -85.06528 39044 ft 561 kts 98°
2026-05-05 02:24 27.52822 -84.97896 39048 ft 562 kts 98°
2026-05-05 02:24 27.51294 -84.89267 39046 ft 562 kts 98°
2026-05-05 02:25 27.49758 -84.80608 39043 ft 562 kts 98°
2026-05-05 02:25 27.48218 -84.71965 39044 ft 563 kts 98°
2026-05-05 02:26 27.46678 -84.63324 39040 ft 563 kts 98°
2026-05-05 02:26 27.45134 -84.54690 39041 ft 563 kts 98°
2026-05-05 02:27 27.43592 -84.46095 39043 ft 563 kts 98°
2026-05-05 02:27 27.42037 -84.37463 39042 ft 563 kts 98°
2026-05-05 02:28 27.40473 -84.28829 39046 ft 563 kts 98°
2026-05-05 02:28 27.38901 -84.20179 39045 ft 563 kts 98°
2026-05-05 02:29 27.37328 -84.11557 39045 ft 563 kts 98°
2026-05-05 02:29 27.35750 -84.02927 39040 ft 563 kts 98°
2026-05-05 02:30 27.34175 -83.94352 39034 ft 563 kts 98°
2026-05-05 02:30 27.32585 -83.85722 39040 ft 563 kts 98°
2026-05-05 02:31 27.30992 -83.77109 39046 ft 563 kts 98°
2026-05-05 02:31 27.29392 -83.68485 39041 ft 563 kts 98°
2026-05-05 02:32 27.27784 -83.59856 39040 ft 563 kts 99°
2026-05-05 02:32 27.26175 -83.51249 39044 ft 563 kts 99°
2026-05-05 02:33 27.24559 -83.42636 39038 ft 563 kts 99°
2026-05-05 02:33 27.22938 -83.34023 39036 ft 563 kts 99°
2026-05-05 02:34 27.21325 -83.25486 39040 ft 563 kts 99°
2026-05-05 02:34 27.19695 -83.16887 39041 ft 563 kts 99°
2026-05-05 02:35 27.18061 -83.08290 39044 ft 563 kts 99°
2026-05-05 02:35 27.16415 -82.99677 39030 ft 563 kts 99°
2026-05-05 02:36 27.14769 -82.91084 39032 ft 563 kts 99°
2026-05-05 02:36 27.12825 -82.82641 39006 ft 556 kts 113°
2026-05-05 02:36 27.10989 -82.78881 38750 ft 545 kts 122°
2026-05-05 02:37 27.08938 -82.75305 38061 ft 544 kts 124°
2026-05-05 02:37 27.06834 -82.71762 37261 ft 547 kts 124°
2026-05-05 02:37 27.04742 -82.68186 36552 ft 547 kts 123°
2026-05-05 02:37 27.02694 -82.64584 35854 ft 548 kts 122°
2026-05-05 02:38 27.00678 -82.60949 35175 ft 548 kts 121°
2026-05-05 02:38 26.98707 -82.57347 34543 ft 548 kts 121°
2026-05-05 02:38 26.96713 -82.53695 34266 ft 550 kts 121°
2026-05-05 02:38 26.94691 -82.50011 34104 ft 556 kts 121°
2026-05-05 02:39 26.92652 -82.46320 34052 ft 558 kts 122°
2026-05-05 02:39 26.90354 -82.42816 34009 ft 557 kts 135°
2026-05-05 02:39 26.87543 -82.39890 33527 ft 549 kts 142°
2026-05-05 02:39 26.84595 -82.37178 32944 ft 543 kts 144°
2026-05-05 02:40 26.81694 -82.34588 32433 ft 537 kts 144°
2026-05-05 02:40 26.78798 -82.31973 31926 ft 531 kts 143°
2026-05-05 02:40 26.75968 -82.29354 31462 ft 525 kts 142°
2026-05-05 02:40 26.73192 -82.26728 30982 ft 520 kts 142°
2026-05-05 02:41 26.70457 -82.24107 30497 ft 514 kts 142°
2026-05-05 02:41 26.67757 -82.21510 29998 ft 509 kts 142°
2026-05-05 02:41 26.65092 -82.18949 29458 ft 502 kts 142°
2026-05-05 02:41 26.62455 -82.16423 28868 ft 496 kts 142°
2026-05-05 02:42 26.59842 -82.13927 28270 ft 491 kts 142°
2026-05-05 02:42 26.57256 -82.11461 27680 ft 486 kts 142°
2026-05-05 02:42 26.54688 -82.09013 27137 ft 481 kts 143°
2026-05-05 02:42 26.52158 -82.06594 26600 ft 476 kts 142°
2026-05-05 02:43 26.49722 -82.04181 26082 ft 471 kts 141°
2026-05-05 02:43 26.47306 -82.01735 25546 ft 467 kts 141°
2026-05-05 02:43 26.44917 -81.99299 25046 ft 462 kts 141°
2026-05-05 02:43 26.42554 -81.96897 24555 ft 458 kts 141°
2026-05-05 02:44 26.40207 -81.94521 24076 ft 453 kts 142°
2026-05-05 02:44 26.37877 -81.92173 23606 ft 449 kts 142°
2026-05-05 02:44 26.35569 -81.89855 23061 ft 444 kts 142°
2026-05-05 02:44 26.33284 -81.87560 22543 ft 439 kts 142°
2026-05-05 02:45 26.31026 -81.85296 22071 ft 433 kts 142°
2026-05-05 02:45 26.28799 -81.83061 21570 ft 428 kts 142°
2026-05-05 02:45 26.26596 -81.80853 21179 ft 425 kts 142°
2026-05-05 02:45 26.24432 -81.78648 21055 ft 427 kts 138°
2026-05-05 02:46 26.22637 -81.75994 20954 ft 429 kts 121°
2026-05-05 02:46 26.21329 -81.73015 20523 ft 427 kts 117°
2026-05-05 02:46 26.20103 -81.70019 20032 ft 423 kts 116°
2026-05-05 02:46 26.18887 -81.67046 19550 ft 420 kts 117°
2026-05-05 02:47 26.17664 -81.64117 19128 ft 415 kts 117°
2026-05-05 02:47 26.16433 -81.61227 18699 ft 411 kts 118°
2026-05-05 02:47 26.15199 -81.58371 18261 ft 407 kts 118°
2026-05-05 02:47 26.13969 -81.55545 17789 ft 403 kts 118°
2026-05-05 02:48 26.12748 -81.52748 17307 ft 400 kts 118°
2026-05-05 02:48 26.11536 -81.49976 16825 ft 396 kts 118°
2026-05-05 02:48 26.10335 -81.47226 16363 ft 393 kts 118°
2026-05-05 02:48 26.09160 -81.44535 15919 ft 389 kts 118°
2026-05-05 02:49 26.07981 -81.41840 15471 ft 386 kts 118°
2026-05-05 02:49 26.06813 -81.39169 15114 ft 382 kts 118°
2026-05-05 02:49 26.05657 -81.36520 14772 ft 379 kts 118°
2026-05-05 02:49 26.04513 -81.33893 14304 ft 376 kts 117°
2026-05-05 02:50 26.03375 -81.31280 13847 ft 374 kts 117°
2026-05-05 02:50 26.02244 -81.28685 13375 ft 371 kts 118°
2026-05-05 02:50 26.01124 -81.26115 12937 ft 367 kts 118°
2026-05-05 02:50 26.00014 -81.23570 12466 ft 363 kts 118°
2026-05-05 02:51 25.99290 -81.21912 12321 ft 357 kts 118°
2026-05-05 02:51 25.98656 -81.20460 12265 ft 348 kts 118°
2026-05-05 03:07 25.97898 -81.18722 12173 ft 338 kts 118°
2026-05-05 03:07 25.96885 -81.16404 11997 ft 328 kts 118°
2026-05-05 03:07 25.95898 -81.14150 11719 ft 322 kts 118°
2026-05-05 03:08 25.94924 -81.11926 11367 ft 319 kts 118°
2026-05-05 03:08 25.93955 -81.09715 10985 ft 317 kts 118°
2026-05-05 03:08 25.93004 -81.07547 10636 ft 315 kts 119°
2026-05-05 03:08 25.92048 -81.05367 10286 ft 312 kts 119°
2026-05-05 03:09 25.91105 -81.03205 9943 ft 310 kts 118°
2026-05-05 03:09 25.90242 -81.01011 9573 ft 308 kts 115°
2026-05-05 03:09 25.89420 -80.98827 9218 ft 305 kts 115°
2026-05-05 03:09 25.88607 -80.96661 8861 ft 302 kts 115°
2026-05-05 03:10 25.87792 -80.94516 8506 ft 300 kts 115°
2026-05-05 03:10 25.86991 -80.92420 8162 ft 298 kts 115°
2026-05-05 03:10 25.86183 -80.90313 7994 ft 296 kts 115°
2026-05-05 03:10 25.85371 -80.88200 8001 ft 297 kts 115°
2026-05-05 03:11 25.84561 -80.86093 7999 ft 297 kts 115°
2026-05-05 03:11 25.83750 -80.83986 7995 ft 296 kts 115°
2026-05-05 03:11 25.82943 -80.81888 7913 ft 294 kts 115°
2026-05-05 03:11 25.82146 -80.79817 7581 ft 291 kts 115°
2026-05-05 03:12 25.81349 -80.77749 7213 ft 291 kts 115°
2026-05-05 03:12 25.80558 -80.75696 6881 ft 288 kts 114°
2026-05-05 03:12 25.79772 -80.73658 6551 ft 286 kts 114°
2026-05-05 03:12 25.78992 -80.71635 6208 ft 284 kts 114°
2026-05-05 03:13 25.78217 -80.69629 5862 ft 281 kts 114°
2026-05-05 03:13 25.77708 -80.68311 5621 ft 280 kts 114°
2026-05-05 03:13 25.77585 -80.67994 5563 ft 280 kts 114°
2026-05-05 03:13 25.77064 -80.65967 5177 ft 268 kts 92°
2026-05-05 03:14 25.77191 -80.63935 4702 ft 260 kts 84°
2026-05-05 03:14 25.77339 -80.61962 4225 ft 252 kts 87°
2026-05-05 03:14 25.77427 -80.60079 4029 ft 236 kts 88°
2026-05-05 03:14 25.77498 -80.58364 3982 ft 215 kts 88°
2026-05-05 03:15 25.77563 -80.56770 3978 ft 200 kts 88°
2026-05-05 03:15 25.77623 -80.55317 4015 ft 187 kts 88°
2026-05-05 03:15 25.77682 -80.53890 3916 ft 187 kts 88°
2026-05-05 03:15 25.77741 -80.52462 3674 ft 182 kts 88°
2026-05-05 03:16 25.77798 -80.51076 3449 ft 177 kts 88°
2026-05-05 03:16 25.77854 -80.49729 3218 ft 173 kts 88°
2026-05-05 03:16 25.77908 -80.48405 2994 ft 171 kts 88°
2026-05-05 03:16 25.77963 -80.47094 2774 ft 169 kts 88°
2026-05-05 03:17 25.78017 -80.45774 2565 ft 171 kts 87°
2026-05-05 03:17 25.78070 -80.44490 2346 ft 159 kts 88°
2026-05-05 03:17 25.78119 -80.43310 2154 ft 149 kts 87°
2026-05-05 03:17 25.78166 -80.42188 1954 ft 143 kts 87°
2026-05-05 03:18 25.78211 -80.41096 1770 ft 143 kts 87°
2026-05-05 03:18 25.78256 -80.40005 1579 ft 141 kts 88°
2026-05-05 03:18 25.78300 -80.38930 1394 ft 138 kts 87°
2026-05-05 03:18 25.78342 -80.37863 1212 ft 139 kts 88°
2026-05-05 03:19 25.78430 -80.35707 837 ft 138 kts 85°
2026-05-05 03:19 25.78477 -80.34647 655 ft 139 kts 86°
2026-05-05 03:19 25.78516 -80.33556 475 ft 141 kts 85°
2026-05-05 03:20 25.78568 -80.32476 355 ft 140 kts 85°
2026-05-05 03:20 25.78614 -80.31365 99 ft 140 kts 85°
2026-05-05 03:20 25.78656 -80.30426 19 ft 74 kts 87°
2026-05-05 03:20 25.78672 -80.30048 18 ft 45 kts 88°
2026-05-05 03:21 25.78683 -80.29729 20 ft 38 kts 87°
2026-05-05 03:21 25.78693 -80.29456 19 ft 33 kts 88°
2026-05-05 03:21 25.78742 -80.29228 22 ft 30 kts 59°
2026-05-05 03:21 25.78823 -80.29075 19 ft 20 kts 86°
2026-05-05 03:22 25.78847 -80.28926 19 ft 20 kts 75°
2026-05-05 03:22 25.78867 -80.28776 19 ft 20 kts 86°
2026-05-05 03:22 25.78911 -80.28691 19 ft 11 kts 14°
2026-05-05 03:22 25.78986 -80.28686 19 ft 13 kts 357°
2026-05-05 03:23 25.79085 -80.28691 19 ft 14 kts 356°
2026-05-05 03:23 25.79183 -80.28697 18 ft 14 kts 357°
2026-05-05 03:23 25.79276 -80.28722 19 ft 14 kts 319°
2026-05-05 03:23 25.79332 -80.28800 19 ft 11 kts 324°
2026-05-05 03:24 25.79405 -80.28813 19 ft 11 kts 356°